Change the Weather History Date:

Monday, May 5, 2014

  Actual Average Record
Temperature  
Mean Temperature 24 °F -  
Max Temperature 26 °F 25 °F 35 °F (2002)
Min Temperature 21 °F 15 °F 0 °F (1998)
Degree Days  
Heating Degree Days 42    
Moisture  
Dew Point 21 °F    
Average Humidity 86    
Maximum Humidity 93    
Minimum Humidity 74    
Precipitation  
Precipitation 0.00 in - - ()
Sea Level Pressure  
Sea Level Pressure 29.86 in    
Wind  
Wind Speed 21 mph (SW)    
Max Wind Speed 32 mph    
Max Gust Speed 55 mph    
Visibility 4 miles    
Events Fog , Rain , Snow    
Averages and records for this station are not official NWS values.
T = Trace of Precipitation, MM = Missing Value Source: NWS Daily Summary

Daily Weather History Graph

Daily Weather History Graph

Search for Another Location

Airport or City:

Trip Planner

Search our weather history database for the weather conditions in past years. The results will help you decide how hot, cold, wet, or windy it might be!

Date:

Astronomy

May. 05, 2014 Rise Set
Actual Time 5:28 AM AKDT 12:38 AM AKDT
Civil Twilight 3:33 AM AKDT 2:28 AM AKDT
Nautical Twilight Sun does not rise Sun does not rise
Astronomical Twilight Sun does not rise Sun does not rise
Moon 11:25 AM AKDT (5/5) 5:06 AM AKDT (5/5)
Length of Visible Light 22h 55m
Length of Day
19h 09m
Waxing Crescent, 38% of the Moon is Illuminated
May 5
Waxing Crescent
May 6
First Quarter
May 14
Full
May 21
Last Quarter
May 28
New

Hourly Weather History & Observations

Time (AKDT) Temp. Windchill Dew Point Humidity Pressure Visibility Wind Dir Wind Speed Gust Speed Precip Events Conditions
12:22 AM 21.2 °F 7.3 °F 17.6 °F 86% 29.93 in 2.5 mi West 16.1 mph 34.5 mph N/A Rain Light Freezing Rain
12:42 AM 21.2 °F 4.2 °F 17.6 °F 86% 29.93 in 3.0 mi West 25.3 mph 35.7 mph N/A Snow Light Snow
12:55 AM 21.7 °F 5.9 °F 16.0 °F 78% 29.93 in 2.0 mi West 21.9 mph 36.8 mph 0.00 in Rain Light Freezing Rain
1:02 AM 21.2 °F 5.2 °F 15.8 °F 80% 29.93 in 4.0 mi West 21.9 mph 35.7 mph N/A Rain Light Freezing Rain
1:22 AM 21.2 °F 8.3 °F 17.6 °F 86% 29.93 in 1.0 mi WSW 13.8 mph 28.8 mph N/A Snow Light Snow
1:43 AM 21.2 °F 4.9 °F 17.6 °F 86% 29.92 in 2.0 mi WSW 23.0 mph 32.2 mph N/A Snow Light Snow
1:55 AM 22.1 °F 7.2 °F 18.3 °F 85% 29.92 in 1.5 mi WSW 19.6 mph 34.5 mph 0.00 in Snow Light Snow
2:03 AM 23.0 °F 8.3 °F 19.4 °F 86% 29.92 in 1.0 mi WSW 19.6 mph 35.7 mph N/A Snow Light Snow
2:23 AM 23.0 °F 6.6 °F 19.4 °F 86% 29.92 in 2.0 mi SW 25.3 mph 39.1 mph N/A Snow Light Snow
2:55 AM 22.6 °F 8.3 °F 19.2 °F 87% 29.91 in 2.5 mi West 18.4 mph 40.3 mph 0.00 in Snow Light Snow
3:43 AM 23.0 °F 7.2 °F 17.6 °F 80% 29.90 in 1.2 mi WSW 23.0 mph 47.2 mph N/A Snow Light Snow
3:55 AM 23.2 °F 9.8 °F 18.0 °F 80% 29.90 in 2.5 mi SW 16.1 mph 42.6 mph 0.00 in Snow Light Snow
4:03 AM 23.0 °F 8.0 °F 17.6 °F 80% 29.91 in 5.0 mi WSW 20.7 mph 44.9 mph N/A Rain Light Freezing Rain
4:23 AM 23.0 °F 6.6 °F 19.4 °F 86% 29.90 in 3.0 mi WSW 25.3 mph 41.4 mph N/A Rain Light Freezing Rain
4:43 AM 23.0 °F 6.3 °F 19.4 °F 86% 29.90 in 3.0 mi SW 26.5 mph 41.4 mph N/A Rain Light Freezing Rain
4:55 AM 23.5 °F 8.0 °F 18.9 °F 82% 29.89 in 4.0 mi WSW 23.0 mph 42.6 mph 0.00 in Rain Light Freezing Rain
5:03 AM 23.0 °F 6.3 °F 19.4 °F 86% 29.88 in 1.8 mi SW 26.5 mph 55.2 mph N/A Rain Light Freezing Rain
5:23 AM 23.0 °F 6.6 °F 19.4 °F 86% 29.88 in 1.8 mi SW 25.3 mph 38.0 mph N/A Snow Light Snow
5:43 AM 24.8 °F 8.1 °F 21.2 °F 86% 29.88 in 1.5 mi SSW 28.8 mph 41.4 mph N/A Snow Light Snow
5:45 AM 24.8 °F 7.9 °F 21.2 °F 86% 29.88 in 1.2 mi SW 29.9 mph 48.3 mph N/A Snow Light Snow
5:55 AM 24.8 °F 8.4 °F 21.2 °F 86% 29.88 in 1.8 mi SW 27.6 mph 48.3 mph N/A Snow Light Snow
6:20 AM 24.8 °F 9.3 °F 21.2 °F 86% 29.88 in 2.0 mi SW 24.2 mph 40.3 mph N/A Snow Light Snow
6:43 AM 24.8 °F 9.6 °F 21.2 °F 86% 29.88 in 1.5 mi SW 23.0 mph 40.3 mph N/A Snow Light Snow
6:55 AM 24.8 °F 8.4 °F 21.2 °F 86% 29.88 in 1.0 mi SW 27.6 mph 38.0 mph N/A Snow Light Snow
7:14 AM 24.8 °F 8.7 °F 23.0 °F 93% 29.88 in 1.0 mi SW 26.5 mph 41.4 mph N/A Snow Light Snow
7:25 AM 24.8 °F 9.0 °F 23.0 °F 93% 29.88 in 0.8 mi SW 25.3 mph 35.7 mph N/A Snow Light Snow
7:55 AM 24.8 °F 8.1 °F 23.0 °F 93% 29.87 in 0.8 mi SW 28.8 mph 36.8 mph N/A Snow Light Snow
8:17 AM 24.8 °F 9.3 °F 23.0 °F 93% 29.87 in 1.0 mi SW 24.2 mph 35.7 mph N/A Snow Light Snow
8:55 AM 24.8 °F 9.6 °F 23.0 °F 93% 29.86 in 0.5 mi SW 23.0 mph 35.7 mph N/A Fog , Snow Light Snow
9:14 AM 24.8 °F 8.7 °F 23.0 °F 93% 29.86 in 0.5 mi SW 26.5 mph 35.7 mph N/A Fog , Snow Snow
9:38 AM 24.8 °F 8.4 °F 23.0 °F 93% 29.86 in 0.8 mi SW 27.6 mph 36.8 mph N/A Snow Light Snow
9:55 AM 24.8 °F 9.6 °F 23.0 °F 93% 29.85 in 0.8 mi SW 23.0 mph 35.7 mph N/A Snow Light Snow
10:14 AM 24.8 °F 8.7 °F 23.0 °F 93% 29.85 in 1.0 mi SW 26.5 mph 38.0 mph N/A Snow Light Snow
10:39 AM 24.8 °F 9.3 °F 23.0 °F 93% 29.85 in 0.5 mi SW 24.2 mph 34.5 mph N/A Fog , Snow Snow
10:55 AM 24.8 °F 8.4 °F 23.0 °F 93% 29.85 in 0.5 mi SW 27.6 mph 35.7 mph N/A Fog , Snow Light Snow
11:30 AM 24.8 °F 10.0 °F 23.0 °F 93% 29.85 in 1.0 mi SSW 21.9 mph 32.2 mph N/A Snow Light Snow
11:55 AM 25.2 °F 9.5 °F 22.1 °F 88% 29.85 in 0.8 mi SSW 25.3 mph 35.7 mph 0.00 in Snow Light Snow
12:15 PM 24.8 °F 9.6 °F 21.2 °F 86% 29.84 in 0.8 mi SSW 23.0 mph 34.5 mph N/A Snow Light Snow
12:35 PM 24.8 °F 7.9 °F 23.0 °F 93% 29.83 in 0.5 mi South 29.9 mph 39.1 mph N/A Fog , Snow Light Snow
12:55 PM 25.5 °F 8.8 °F 21.6 °F 85% 29.83 in 0.5 mi SSW 29.9 mph 40.3 mph 0.00 in Fog , Snow Light Snow
1:16 PM 24.8 °F 7.3 °F 21.2 °F 86% 29.83 in 0.5 mi SSW 32.2 mph 50.6 mph N/A Fog , Snow Light Snow
1:55 PM 25.9 °F 9.1 °F 22.3 °F 86% 29.82 in 0.5 mi SSW 31.1 mph 48.3 mph 0.00 in Fog , Snow Light Snow
2:16 PM 26.6 °F 11.4 °F 23.0 °F 86% 29.83 in 0.8 mi SW 25.3 mph 39.1 mph N/A Snow Light Snow
2:36 PM 26.6 °F 10.8 °F 23.0 °F 86% 29.82 in 1.2 mi SW 27.6 mph 34.5 mph N/A   Light Ice Pellets
2:55 PM 25.2 °F 9.8 °F 20.3 °F 82% 29.83 in 1.5 mi SW 24.2 mph 35.7 mph 0.00 in Snow Light Snow
2:56 PM 24.8 °F 9.0 °F 21.2 °F 86% 29.83 in 1.5 mi SW 25.3 mph 35.7 mph N/A Rain Light Freezing Rain
3:16 PM 24.8 °F 10.3 °F 21.2 °F 86% 29.83 in 3.0 mi SW 20.7 mph 28.8 mph N/A Rain Light Freezing Rain
3:36 PM 24.8 °F 10.0 °F 21.2 °F 86% 29.83 in 10.0 mi SW 21.9 mph 32.2 mph N/A Rain Light Freezing Rain
3:55 PM 25.3 °F 13.1 °F 19.9 °F 80% 29.83 in 4.0 mi SW 15.0 mph 28.8 mph 0.00 in   Light Ice Pellets
4:16 PM 24.8 °F 10.0 °F 19.4 °F 80% 29.82 in 10.0 mi SW 21.9 mph 26.5 mph N/A Snow Light Snow
4:55 PM 25.3 °F 11.8 °F 21.0 °F 84% 29.82 in 10.0 mi SW 18.4 mph 31.1 mph 0.00 in Rain Light Freezing Rain
5:55 PM 25.3 °F 11.8 °F 21.4 °F 85% 29.81 in 8.0 mi SW 18.4 mph 25.3 mph 0.00 in   Light Ice Pellets
6:16 PM 24.8 °F 11.1 °F 21.2 °F 86% 29.81 in 7.0 mi SW 18.4 mph 27.6 mph N/A Snow Light Snow
6:36 PM 24.8 °F 10.3 °F 21.2 °F 86% 29.81 in 3.0 mi SW 20.7 mph 25.3 mph N/A Snow Light Snow
6:55 PM 25.5 °F 12.0 °F 22.3 °F 88% 29.81 in 4.0 mi SW 18.4 mph - 0.00 in Snow Light Snow
7:55 PM 25.7 °F 13.5 °F 22.1 °F 86% 29.80 in 10.0 mi SW 15.0 mph 23.0 mph 0.00 in Snow Light Snow
8:16 PM 26.6 °F 15.2 °F 21.2 °F 80% 29.81 in 10.0 mi SW 13.8 mph - N/A Snow Light Snow
8:36 PM 26.6 °F 15.7 °F 21.2 °F 80% 29.81 in 10.0 mi SW 12.7 mph - N/A Snow Light Snow
8:55 PM 26.1 °F 16.2 °F 21.6 °F 83% 29.80 in 10.0 mi SW 10.4 mph - 0.00 in Rain Light Freezing Rain
9:55 PM 26.6 °F 22.6 °F 19.4 °F 74% 29.80 in 10.0 mi Variable 3.5 mph - N/A   Mostly Cloudy
10:16 PM 24.8 °F 17.9 °F 21.2 °F 86% 29.80 in 10.0 mi Variable 5.8 mph - N/A   Mostly Cloudy
10:36 PM 24.8 °F 14.0 °F 19.4 °F 80% 29.81 in 10.0 mi SW 11.5 mph - N/A   Mostly Cloudy
10:55 PM 25.3 °F 14.1 °F 19.6 °F 79% 29.80 in 10.0 mi WSW 12.7 mph - 0.00 in Rain Light Freezing Rain
11:16 PM 24.8 °F 14.0 °F 19.4 °F 80% 29.80 in 10.0 mi WSW 11.5 mph - N/A   Light Freezing Drizzle
11:36 PM 24.8 °F 14.0 °F 19.4 °F 80% 29.80 in 10.0 mi WSW 11.5 mph - N/A Rain Light Freezing Rain
11:55 PM 25.2 °F 17.3 °F 19.4 °F 79% 29.80 in 10.0 mi SW 6.9 mph - 0.00 in   Light Freezing Drizzle
11:56 PM 24.8 °F 16.9 °F 19.4 °F 80% 29.80 in 10.0 mi SW 6.9 mph - N/A Snow Light Snow